Weather History for Parkersburg, WV

Change the Weather History Date:

Sunday, October 28, 2012

  Actual Average Record
Temperature  
Mean Temperature 43 °F 52 °F  
Max Temperature 47 °F 63 °F 80 °F (1927)
Min Temperature 39 °F 41 °F 22 °F (1976)
Degree Days  
Heating Degree Days 22 14  
Month to date heating degree days 263 275  
Cooling Degree Days 0 0  
Month to date cooling degree days 20 13  
Year to date cooling degree days 1180 949  
Moisture  
Dew Point 42 °F    
Average Humidity 91    
Maximum Humidity 96    
Minimum Humidity 86    
Precipitation  
Precipitation 0.90 in 0.10 in 0.90 in (2012)
Month to date precipitation 1.57 2.56  
Year to date precipitation 34.37 34.43  
Sea Level Pressure  
Sea Level Pressure 29.96 in    
Wind  
Wind Speed 7 mph (NNW)    
Max Wind Speed 15 mph    
Max Gust Speed 23 mph    
Visibility 5 miles    
Events Rain    
T = Trace of Precipitation, MM = Missing Value Source: NWS Daily Summary

Daily Weather History Graph

Daily Weather History Graph

Search for Another Location

Airport:

Trip Planner

Search our weather history database for the weather conditions in past years. The results will help you decide how hot, cold, wet, or windy it might be!

Date:

Astronomy

Oct. 28, 2012 Rise Set
Actual Time 7:49 AM EDT 6:28 PM EDT
Civil Twilight 7:22 AM EDT 6:56 PM EDT
Nautical Twilight 6:50 AM EDT 7:27 PM EDT
Astronomical Twilight 6:19 AM EDT 7:58 PM EDT
Moon 5:45 PM EDT (10/28) 6:41 AM EDT (10/28)
Length of Visible Light 11h 34m
Length of Day
10h 38m
Waxing Gibbous, 99% of the Moon is Illuminated
Oct 28
Waxing Gibbous
Oct 29
Full
Nov 6
Last Quarter
Nov 13
New
Nov 20
First Quarter

Hourly Weather History & Observations

Time (EDT) Temp. Windchill Dew Point Humidity Pressure Visibility Wind Dir Wind Speed Gust Speed Precip Events Conditions
12:28 AM 46.4 °F 41.9 °F 44.6 °F 93% 30.03 in 5.0 mi North 9.2 mph - N/A   Overcast
12:53 AM 46.9 °F - 44.1 °F 90% 30.03 in 8.0 mi NNW 9.2 mph - N/A   Overcast
1:53 AM 46.9 °F - 44.1 °F 90% 30.03 in 7.0 mi North 8.1 mph - 0.01 in Rain Light Rain
2:00 AM 46.4 °F 42.4 °F 44.6 °F 93% 30.03 in 6.0 mi North 8.1 mph - 0.00 in Rain Light Rain
2:33 AM 46.4 °F 44.3 °F 44.6 °F 93% 30.02 in 3.0 mi NNW 4.6 mph - 0.01 in   Overcast
2:53 AM 46.0 °F 43.9 °F 44.1 °F 93% 30.03 in 3.0 mi NNW 4.6 mph - 0.01 in Rain Light Rain
3:53 AM 46.0 °F 44.8 °F 45.0 °F 96% 30.01 in 6.0 mi NNW 3.5 mph - 0.01 in Rain Light Rain
4:38 AM 46.4 °F 42.4 °F 42.8 °F 87% 29.99 in 6.0 mi NNW 8.1 mph - 0.00 in Rain Light Rain
4:51 AM 46.4 °F 41.9 °F 42.8 °F 87% 29.99 in 4.0 mi North 9.2 mph - 0.00 in   Overcast
4:53 AM 46.0 °F 41.9 °F 43.0 °F 89% 30.00 in 4.0 mi North 8.1 mph - 0.00 in   Overcast
5:10 AM 46.4 °F 42.9 °F 42.8 °F 87% 29.98 in 3.0 mi North 6.9 mph - 0.01 in   Overcast
5:53 AM 45.0 °F 40.1 °F 43.0 °F 93% 29.99 in 4.0 mi North 9.2 mph - 0.01 in Rain Light Rain
6:53 AM 45.0 °F 41.8 °F 43.0 °F 93% 29.98 in 7.0 mi NNW 5.8 mph - 0.02 in Rain Light Rain
7:53 AM 45.0 °F 41.8 °F 43.0 °F 93% 29.98 in 9.0 mi North 5.8 mph - 0.01 in Rain Light Rain
8:38 AM 44.6 °F 40.7 °F 42.8 °F 93% 29.98 in 4.0 mi NNW 6.9 mph - 0.02 in Rain Light Rain
8:53 AM 45.0 °F 41.2 °F 43.0 °F 93% 29.99 in 4.0 mi NNW 6.9 mph - 0.04 in Rain Light Rain
9:05 AM 44.6 °F 41.4 °F 42.8 °F 93% 29.98 in 3.0 mi North 5.8 mph - 0.02 in Rain Rain
9:33 AM 44.6 °F 40.7 °F 42.8 °F 93% 29.97 in 4.0 mi NNW 6.9 mph - 0.06 in Rain Light Rain
9:53 AM 45.0 °F 41.2 °F 43.0 °F 93% 29.98 in 5.0 mi North 6.9 mph - 0.07 in Rain Light Rain
10:17 AM 44.6 °F 41.4 °F 42.8 °F 93% 29.97 in 2.5 mi NNW 5.8 mph - 0.04 in Rain Rain
10:40 AM 44.6 °F 40.7 °F 42.8 °F 93% 29.97 in 3.0 mi North 6.9 mph - 0.10 in Rain Rain
10:53 AM 45.0 °F 43.5 °F 43.0 °F 93% 29.98 in 4.0 mi NNW 3.5 mph - 0.11 in Rain Light Rain
11:08 AM 44.6 °F 42.2 °F 42.8 °F 93% 29.97 in 2.5 mi NNW 4.6 mph - 0.03 in Rain Rain
11:16 AM 44.6 °F 40.7 °F 42.8 °F 93% 29.97 in 3.0 mi North 6.9 mph - 0.04 in Rain Rain
11:22 AM 44.6 °F 40.7 °F 42.8 °F 93% 29.96 in 2.5 mi North 6.9 mph - 0.05 in Rain Rain
11:34 AM 44.6 °F 42.2 °F 42.8 °F 93% 29.96 in 3.0 mi North 4.6 mph - 0.08 in Rain Rain
11:53 AM 45.0 °F 41.2 °F 43.0 °F 93% 29.97 in 3.0 mi NNW 6.9 mph - 0.12 in Rain Light Rain
12:05 PM 44.6 °F 40.7 °F 42.8 °F 93% 29.96 in 3.0 mi North 6.9 mph - 0.01 in Rain Rain
12:12 PM 44.6 °F 40.7 °F 42.8 °F 93% 29.95 in 2.5 mi North 6.9 mph - 0.02 in Rain Light Rain
12:19 PM 44.6 °F 42.2 °F 42.8 °F 93% 29.95 in 4.0 mi North 4.6 mph - 0.03 in Rain Light Rain
12:33 PM 44.6 °F 41.4 °F 42.8 °F 93% 29.94 in 2.5 mi North 5.8 mph - 0.04 in Rain Light Rain
12:40 PM 44.6 °F 41.4 °F 42.8 °F 93% 29.94 in 3.0 mi NNW 5.8 mph - 0.04 in Rain Light Rain
12:53 PM 45.0 °F 41.2 °F 43.0 °F 93% 29.95 in 4.0 mi NNW 6.9 mph - 0.05 in Rain Light Rain
1:34 PM 44.6 °F 40.7 °F 42.8 °F 93% 29.92 in 10.0 mi North 6.9 mph - 0.01 in Rain Light Rain
1:53 PM 46.0 °F 42.5 °F 42.1 °F 86% 29.92 in 10.0 mi North 6.9 mph - 0.01 in   Overcast
2:10 PM 46.4 °F 42.9 °F 42.8 °F 87% 29.91 in 10.0 mi North 6.9 mph - 0.00 in   Overcast
2:53 PM 46.0 °F 40.2 °F 42.1 °F 86% 29.91 in 10.0 mi NNW 12.7 mph 19.6 mph 0.00 in   Overcast
3:08 PM 44.6 °F 38.4 °F 41.0 °F 87% 29.89 in 10.0 mi North 12.7 mph 19.6 mph N/A   Overcast
3:53 PM 45.0 °F 41.2 °F 41.0 °F 86% 29.90 in 7.0 mi Variable 6.9 mph 17.3 mph 0.01 in Rain Light Rain
4:00 PM 44.6 °F 38.8 °F 41.0 °F 87% 29.89 in 7.0 mi North 11.5 mph 19.6 mph 0.00 in Rain Light Rain
4:38 PM 44.6 °F 40.2 °F 41.0 °F 87% 29.89 in 2.5 mi North 8.1 mph - 0.01 in Rain Light Rain
4:53 PM 44.1 °F 39.5 °F 41.0 °F 89% 29.90 in 3.0 mi North 8.1 mph - 0.02 in Rain Light Rain
5:05 PM 44.6 °F 40.2 °F 42.8 °F 93% 29.90 in 3.0 mi North 8.1 mph - 0.01 in Rain Light Rain
5:53 PM 44.1 °F - 42.1 °F 93% 29.92 in 4.0 mi Calm Calm - 0.08 in Rain Light Rain
6:53 PM 44.1 °F 40.8 °F 42.1 °F 93% 29.92 in 6.0 mi WNW 5.8 mph - 0.05 in Rain Light Rain
7:53 PM 43.0 °F 38.2 °F 41.0 °F 93% 29.94 in 6.0 mi NW 8.1 mph - 0.04 in Rain Light Rain
8:20 PM 42.8 °F 37.5 °F 39.2 °F 87% 29.93 in 6.0 mi NW 9.2 mph - 0.05 in Rain Light Rain
8:27 PM 42.8 °F 39.3 °F 39.2 °F 87% 29.93 in 6.0 mi NW 5.8 mph - 0.06 in Rain Light Rain
8:53 PM 42.1 °F 36.6 °F 39.9 °F 92% 29.94 in 7.0 mi NW 9.2 mph - 0.09 in Rain Light Rain
9:53 PM 41.0 °F 36.4 °F 37.9 °F 89% 29.94 in 10.0 mi NW 6.9 mph - 0.04 in Rain Light Rain
10:00 PM 41.0 °F 34.3 °F 37.4 °F 87% 29.93 in 9.0 mi NW 11.5 mph 17.3 mph 0.00 in Rain Light Rain
10:53 PM 41.0 °F 35.2 °F 37.9 °F 89% 29.93 in 6.0 mi NW 9.2 mph - 0.03 in Rain Light Rain
11:37 PM 41.0 °F 36.4 °F 37.4 °F 87% 29.91 in 9.0 mi NW 6.9 mph - 0.03 in Rain Light Rain
11:53 PM 41.0 °F 34.7 °F 37.9 °F 89% 29.92 in 10.0 mi NNW 10.4 mph 17.3 mph 0.03 in Rain Light Rain